Time,TemperatureF,DewpointF,PressureIn,WindDirection,WindDirectionDegrees,WindSpeedMPH,WindSpeedGustMPH,Humidity,HourlyPrecipIn,Conditions,Clouds,dailyrainin,SoftwareType,DateUTC
2013-03-02 00:13:00,22.4,16.0,30.19,NNW,333,0.0,5.0,77,0.00,,,0.00,weatherlink.com 1.10,2013-03-02 05:13:00,
2013-03-02 00:28:00,22.2,16.0,30.19,East,80,0.0,3.0,77,0.00,,,0.00,weatherlink.com 1.10,2013-03-02 05:28:00,
2013-03-02 00:43:00,22.1,16.0,30.19,NNW,335,0.0,1.0,77,0.00,,,0.00,weatherlink.com 1.10,2013-03-02 05:43:00,
2013-03-02 00:58:00,21.8,16.0,30.19,North,1,0.0,3.0,78,0.00,,,0.00,weatherlink.com 1.10,2013-03-02 05:58:00,
2013-03-02 01:13:00,21.5,16.0,30.19,NNW,332,0.0,2.0,78,0.00,,,0.00,weatherlink.com 1.10,2013-03-02 06:13:00,
2013-03-02 01:28:00,21.1,15.0,30.19,NNW,335,0.0,0.0,78,0.00,,,0.00,weatherlink.com 1.10,2013-03-02 06:28:00,
2013-03-02 01:43:00,20.6,15.0,30.20,NW,323,0.0,0.0,79,0.00,,,0.00,weatherlink.com 1.10,2013-03-02 06:43:00,
2013-03-02 01:58:00,20.3,15.0,30.19,NE,39,0.0,0.0,79,0.00,,,0.00,weatherlink.com 1.10,2013-03-02 06:58:00,
2013-03-02 02:13:00,20.1,15.0,30.19,NNE,32,0.0,0.0,79,0.00,,,0.00,weatherlink.com 1.10,2013-03-02 07:13:00,
2013-03-02 02:28:00,19.8,14.0,30.19,NNW,348,0.0,0.0,79,0.00,,,0.00,weatherlink.com 1.10,2013-03-02 07:28:00,
2013-03-02 02:43:00,19.5,14.0,30.19,North,349,0.0,0.0,80,0.00,,,0.00,weatherlink.com 1.10,2013-03-02 07:43:00,
2013-03-02 02:58:00,19.0,14.0,30.19,NE,45,0.0,0.0,80,0.00,,,0.00,weatherlink.com 1.10,2013-03-02 07:58:00,
2013-03-02 03:13:00,18.6,14.0,30.19,NE,39,0.0,0.0,81,0.00,,,0.00,weatherlink.com 1.10,2013-03-02 08:13:00,
2013-03-02 03:28:00,18.3,13.0,30.19,North,4,0.0,0.0,81,0.00,,,0.00,weatherlink.com 1.10,2013-03-02 08:28:00,
2013-03-02 03:43:00,18.1,14.0,30.19,NNW,337,0.0,0.0,82,0.00,,,0.00,weatherlink.com 1.10,2013-03-02 08:43:00,
2013-03-02 03:58:00,17.8,13.0,30.18,NNW,329,0.0,0.0,82,0.00,,,0.00,weatherlink.com 1.10,2013-03-02 08:58:00,
2013-03-02 04:13:00,17.6,13.0,30.18,NW,304,0.0,0.0,82,0.00,,,0.00,weatherlink.com 1.10,2013-03-02 09:13:00,
2013-03-02 04:28:00,17.3,13.0,30.18,NW,304,0.0,0.0,82,0.00,,,0.00,weatherlink.com 1.10,2013-03-02 09:28:00,
2013-03-02 04:43:00,17.3,13.0,30.18,NNW,330,0.0,0.0,83,0.00,,,0.00,weatherlink.com 1.10,2013-03-02 09:43:00,
2013-03-02 04:58:00,16.9,13.0,30.18,NE,44,0.0,0.0,83,0.00,,,0.00,weatherlink.com 1.10,2013-03-02 09:58:00,
2013-03-02 05:13:00,16.7,12.0,30.18,NW,326,0.0,0.0,83,0.00,,,0.00,weatherlink.com 1.10,2013-03-02 10:13:00,
2013-03-02 05:28:00,16.6,12.0,30.18,NW,326,0.0,0.0,83,0.00,,,0.00,weatherlink.com 1.10,2013-03-02 10:28:00,
2013-03-02 05:43:00,16.7,12.0,30.18,WNW,290,0.0,0.0,83,0.00,,,0.00,weatherlink.com 1.10,2013-03-02 10:43:00,
2013-03-02 05:58:00,16.3,12.0,30.18,WNW,290,0.0,0.0,83,0.00,,,0.00,weatherlink.com 1.10,2013-03-02 10:58:00,
2013-03-02 06:13:00,16.0,12.0,30.18,WNW,290,0.0,0.0,83,0.00,,,0.00,weatherlink.com 1.10,2013-03-02 11:13:00,
2013-03-02 06:28:00,15.2,11.0,30.18,WNW,290,0.0,0.0,84,0.00,,,0.00,weatherlink.com 1.10,2013-03-02 11:28:00,
2013-03-02 06:43:00,15.1,11.0,30.18,WNW,290,0.0,0.0,84,0.00,,,0.00,weatherlink.com 1.10,2013-03-02 11:43:00,
2013-03-02 06:58:00,15.4,12.0,30.19,WNW,290,0.0,0.0,85,0.00,,,0.00,weatherlink.com 1.10,2013-03-02 11:58:00,
2013-03-02 07:13:00,14.9,11.0,30.19,West,262,0.0,0.0,85,0.00,,,0.00,weatherlink.com 1.10,2013-03-02 12:13:00,
2013-03-02 07:28:00,14.5,11.0,30.20,West,262,0.0,0.0,85,0.00,,,0.00,weatherlink.com 1.10,2013-03-02 12:28:00,
2013-03-02 07:44:00,15.1,11.0,30.19,North,6,0.0,0.0,85,0.00,,,0.00,weatherlink.com 1.10,2013-03-02 12:44:00,
2013-03-02 07:59:00,16.0,12.0,30.20,NW,317,0.0,0.0,85,0.00,,,0.00,weatherlink.com 1.10,2013-03-02 12:59:00,
2013-03-02 08:14:00,16.6,13.0,30.20,NNW,344,0.0,2.0,84,0.00,,,0.00,weatherlink.com 1.10,2013-03-02 13:14:00,
2013-03-02 08:29:00,17.9,14.0,30.20,NNE,14,0.0,4.0,83,0.00,,,0.00,weatherlink.com 1.10,2013-03-02 13:29:00,
2013-03-02 08:44:00,18.8,14.0,30.20,NNW,346,0.0,5.0,81,0.00,,,0.00,weatherlink.com 1.10,2013-03-02 13:44:00,
2013-03-02 08:59:00,19.6,14.0,30.21,North,354,0.0,4.0,79,0.00,,,0.00,weatherlink.com 1.10,2013-03-02 13:59:00,
2013-03-02 09:14:00,20.1,15.0,30.21,NE,42,3.0,7.0,79,0.00,,,0.00,weatherlink.com 1.10,2013-03-02 14:14:00,
2013-03-02 09:29:00,20.6,15.0,30.21,NW,322,3.0,6.0,78,0.00,,,0.00,weatherlink.com 1.10,2013-03-02 14:29:00,
2013-03-02 09:44:00,21.4,15.0,30.20,NNW,327,1.0,7.0,77,0.00,,,0.00,weatherlink.com 1.10,2013-03-02 14:44:00,
2013-03-02 09:59:00,22.3,16.0,30.20,NNW,333,0.0,4.0,76,0.00,,,0.00,weatherlink.com 1.10,2013-03-02 14:59:00,
2013-03-02 10:15:00,22.5,15.0,30.20,ENE,64,3.0,7.0,74,0.00,,,0.00,weatherlink.com 1.10,2013-03-02 15:15:00,
2013-03-02 10:44:00,22.5,15.0,30.20,NNW,342,2.0,7.0,73,0.00,,,0.00,weatherlink.com 1.10,2013-03-02 15:44:00,
2013-03-02 10:59:00,23.2,16.0,30.19,North,352,1.0,7.0,73,0.00,,,0.00,weatherlink.com 1.10,2013-03-02 15:59:00,
2013-03-02 11:14:00,23.0,16.0,30.19,NNE,31,0.0,8.0,73,0.00,,,0.00,weatherlink.com 1.10,2013-03-02 16:14:00,
2013-03-02 11:29:00,22.5,15.0,30.19,North,360,7.0,9.0,73,0.00,,,0.00,weatherlink.com 1.10,2013-03-02 16:29:00,
2013-03-02 11:44:00,22.4,16.0,30.19,NNE,19,3.0,7.0,75,0.00,,,0.00,weatherlink.com 1.10,2013-03-02 16:44:00,
2013-03-02 11:59:00,23.3,16.0,30.19,NNW,342,2.0,7.0,74,0.00,,,0.00,weatherlink.com 1.10,2013-03-02 16:59:00,
2013-03-02 12:14:00,23.2,16.0,30.19,North,358,3.0,7.0,73,0.00,,,0.00,weatherlink.com 1.10,2013-03-02 17:14:00,
2013-03-02 12:29:00,23.8,16.0,30.19,NNW,345,0.0,5.0,72,0.00,,,0.00,weatherlink.com 1.10,2013-03-02 17:29:00,
2013-03-02 12:44:00,24.6,16.0,30.18,NE,34,1.0,-999.0,71,-99.99,,,0.00,weatherlink.com 1.10,2013-03-02 17:44:00,
2013-03-02 12:59:00,24.8,16.0,30.18,NNW,337,0.0,6.0,69,0.00,,,0.00,weatherlink.com 1.10,2013-03-02 17:59:00,
2013-03-02 13:14:00,25.9,17.0,30.17,ENE,77,0.0,4.0,69,0.00,,,0.00,weatherlink.com 1.10,2013-03-02 18:14:00,
2013-03-02 13:29:00,26.2,17.0,30.16,NNW,340,2.0,8.0,68,0.00,,,0.00,weatherlink.com 1.10,2013-03-02 18:29:00,
2013-03-02 13:44:00,25.9,17.0,30.16,NNW,329,0.0,5.0,68,0.00,,,0.00,weatherlink.com 1.10,2013-03-02 18:44:00,
2013-03-02 13:59:00,25.9,16.0,30.16,NE,56,0.0,6.0,67,0.00,,,0.00,weatherlink.com 1.10,2013-03-02 18:59:00,
2013-03-02 14:14:00,26.0,16.0,30.16,North,8,3.0,7.0,67,0.00,,,0.00,weatherlink.com 1.10,2013-03-02 19:14:00,
2013-03-02 14:29:00,27.5,17.0,30.15,West,273,0.0,5.0,65,0.00,,,0.00,weatherlink.com 1.10,2013-03-02 19:29:00,
2013-03-02 14:45:00,28.0,18.0,30.15,NW,316,0.0,5.0,65,0.00,,,0.00,weatherlink.com 1.10,2013-03-02 19:45:00,
2013-03-02 15:00:00,28.1,17.0,30.15,NNW,340,3.0,4.0,63,0.00,,,0.00,weatherlink.com 1.10,2013-03-02 20:00:00,
2013-03-02 15:15:00,28.0,18.0,30.14,NNW,332,3.0,9.0,66,0.00,,,0.00,weatherlink.com 1.10,2013-03-02 20:15:00,
2013-03-02 15:30:00,28.2,17.0,30.14,NNE,20,0.0,5.0,64,0.00,,,0.00,weatherlink.com 1.10,2013-03-02 20:30:00,
2013-03-02 15:45:00,28.6,17.0,30.14,WNW,294,3.0,5.0,62,0.00,,,0.00,weatherlink.com 1.10,2013-03-02 20:45:00,
2013-03-02 16:00:00,30.1,18.0,30.14,NNW,338,0.0,4.0,60,0.00,,,0.00,weatherlink.com 1.10,2013-03-02 21:00:00,
2013-03-02 16:15:00,30.1,17.0,30.14,NW,324,0.0,6.0,58,0.00,,,0.00,weatherlink.com 1.10,2013-03-02 21:15:00,
2013-03-02 16:30:00,29.3,17.0,30.14,NNW,328,2.0,7.0,61,0.00,,,0.00,weatherlink.com 1.10,2013-03-02 21:30:00,
2013-03-02 16:45:00,30.0,17.0,30.13,ENE,74,4.0,7.0,59,0.00,,,0.00,weatherlink.com 1.10,2013-03-02 21:45:00,
2013-03-02 17:00:00,29.6,17.0,30.13,NNW,337,0.0,4.0,60,0.00,,,0.00,weatherlink.com 1.10,2013-03-02 22:00:00,
2013-03-02 17:15:00,30.0,18.0,30.13,NE,42,0.0,3.0,61,0.00,,,0.00,weatherlink.com 1.10,2013-03-02 22:15:00,
2013-03-02 17:30:00,30.4,18.0,30.14,NNW,335,0.0,3.0,60,0.00,,,0.00,weatherlink.com 1.10,2013-03-02 22:30:00,
2013-03-02 17:45:00,30.4,18.0,30.14,North,349,0.0,1.0,61,0.00,,,0.00,weatherlink.com 1.10,2013-03-02 22:45:00,
2013-03-02 18:00:00,30.1,18.0,30.14,NW,317,0.0,3.0,60,0.00,,,0.00,weatherlink.com 1.10,2013-03-02 23:00:00,
2013-03-02 18:15:00,30.1,18.0,30.14,NNW,329,0.0,2.0,61,0.00,,,0.00,weatherlink.com 1.10,2013-03-02 23:15:00,
2013-03-02 18:30:00,29.4,18.0,30.14,WNW,295,0.0,0.0,62,0.00,,,0.00,weatherlink.com 1.10,2013-03-02 23:30:00,
2013-03-02 18:45:00,29.0,18.0,30.14,NNE,18,0.0,0.0,63,0.00,,,0.00,weatherlink.com 1.10,2013-03-02 23:45:00,
2013-03-02 19:00:00,28.9,18.0,30.14,WNW,284,0.0,0.0,64,0.00,,,0.00,weatherlink.com 1.10,2013-03-03 00:00:00,
2013-03-02 19:15:00,28.5,18.0,30.14,West,274,3.0,5.0,66,0.00,,,0.00,weatherlink.com 1.10,2013-03-03 00:15:00,
2013-03-02 19:30:00,27.7,18.0,30.14,West,266,0.0,4.0,68,0.00,,,0.00,weatherlink.com 1.10,2013-03-03 00:30:00,
2013-03-02 19:45:00,27.6,19.0,30.14,West,262,0.0,0.0,69,0.00,,,0.00,weatherlink.com 1.10,2013-03-03 00:45:00,
2013-03-02 20:00:00,28.0,19.0,30.14,NNW,337,0.0,8.0,68,0.00,,,0.00,weatherlink.com 1.10,2013-03-03 01:00:00,
2013-03-02 20:15:00,27.4,18.0,30.14,NW,326,1.0,5.0,69,0.00,,,0.00,weatherlink.com 1.10,2013-03-03 01:15:00,
2013-03-02 20:30:00,26.7,18.0,30.14,NNW,334,2.0,7.0,71,0.00,,,0.00,weatherlink.com 1.10,2013-03-03 01:30:00,
2013-03-02 20:45:00,26.1,18.0,30.14,NNW,333,0.0,8.0,72,0.00,,,0.00,weatherlink.com 1.10,2013-03-03 01:45:00,
2013-03-02 21:00:00,25.4,18.0,30.15,NNW,347,2.0,5.0,74,0.00,,,0.00,weatherlink.com 1.10,2013-03-03 02:00:00,
2013-03-02 21:15:00,24.8,18.0,30.15,NW,323,2.0,7.0,75,0.00,,,0.00,weatherlink.com 1.10,2013-03-03 02:15:00,
2013-03-02 21:30:00,24.6,18.0,30.16,NNE,18,0.0,3.0,76,0.00,,,0.00,weatherlink.com 1.10,2013-03-03 02:30:00,
2013-03-02 21:45:00,24.6,18.0,30.16,NNW,338,0.0,5.0,76,0.00,,,0.00,weatherlink.com 1.10,2013-03-03 02:45:00,
2013-03-02 22:00:00,24.4,18.0,30.16,North,350,0.0,4.0,76,0.00,,,0.00,weatherlink.com 1.10,2013-03-03 03:00:00,
2013-03-02 22:15:00,24.3,18.0,30.16,NNW,339,2.0,4.0,76,0.00,,,0.00,weatherlink.com 1.10,2013-03-03 03:15:00,
2013-03-02 22:30:00,24.3,17.0,30.16,NNE,24,0.0,5.0,75,0.00,,,0.00,weatherlink.com 1.10,2013-03-03 03:30:00,
2013-03-02 22:45:00,24.0,17.0,30.16,NNW,338,0.0,3.0,74,0.00,,,0.00,weatherlink.com 1.10,2013-03-03 03:45:00,
2013-03-02 23:00:00,23.4,17.0,30.16,NW,324,0.0,0.0,76,0.00,,,0.00,weatherlink.com 1.10,2013-03-03 04:00:00,
2013-03-02 23:15:00,22.6,16.0,30.16,North,4,0.0,0.0,77,0.00,,,0.00,weatherlink.com 1.10,2013-03-03 04:15:00,
2013-03-02 23:30:00,22.0,16.0,30.16,WNW,301,0.0,0.0,78,0.00,,,0.00,weatherlink.com 1.10,2013-03-03 04:30:00,
2013-03-02 23:45:00,21.3,16.0,30.16,NNW,334,0.0,0.0,80,0.00,,,0.00,weatherlink.com 1.10,2013-03-03 04:45:00,